Weather History for Hobart, OK

Change the Weather History Date:

Saturday, June 15, 2013

  Actual Average Record
Temperature  
Mean Temperature 80 °F -  
Max Temperature 91 °F 88 °F 100 °F (2008)
Min Temperature 69 °F 63 °F 53 °F (1999)
Cooling Degree Days 15    
Growing Degree Days 30 (Base 50)    
Moisture  
Dew Point 64 °F    
Average Humidity 62    
Maximum Humidity 94    
Minimum Humidity 35    
Precipitation  
Precipitation 0.14 in - - ()
Sea Level Pressure  
Sea Level Pressure 29.93 in    
Wind  
Wind Speed 10 mph (SSW)    
Max Wind Speed 21 mph    
Max Gust Speed 29 mph    
Visibility 9 miles    
Events Rain    
Averages and records for this station are not official NWS values.
T = Trace of Precipitation, MM = Missing Value Source: NWS Daily Summary

Daily Weather History Graph

Daily Weather History Graph

Search for Another Location

Airport:

Trip Planner

Search our weather history database for the weather conditions in past years. The results will help you decide how hot, cold, wet, or windy it might be!

Date:

Astronomy

Jun. 15, 2013 Rise Set
Actual Time 6:21 AM CDT 8:51 PM CDT
Civil Twilight 5:52 AM CDT 9:21 PM CDT
Nautical Twilight 5:15 AM CDT 9:58 PM CDT
Astronomical Twilight 4:34 AM CDT 10:38 PM CDT
Moon 12:44 PM CDT (6/15) 12:40 AM CDT (6/15)
Length of Visible Light 15h 29m
Length of Day
14h 30m
Waxing Crescent, 40% of the Moon is Illuminated
Jun 15
Waxing Crescent
Jun 16
First Quarter
Jun 23
Full
Jun 29
Last Quarter
Jul 8
New

Hourly Weather History & Observations

Time (CDT) Temp. Heat Index Dew Point Humidity Pressure Visibility Wind Dir Wind Speed Gust Speed Precip Events Conditions
12:53 AM 80.1 °F 80.7 °F 59.0 °F 48% 29.93 in 10.0 mi WSW 10.4 mph - N/A   Partly Cloudy
1:53 AM 75.9 °F - 60.1 °F 58% 29.91 in 10.0 mi SW 6.9 mph - N/A   Clear
2:53 AM 75.0 °F - 62.1 °F 64% 29.91 in 10.0 mi SSW 6.9 mph - N/A   Clear
3:53 AM 73.9 °F - 62.1 °F 66% 29.90 in 10.0 mi South 5.8 mph - N/A   Clear
4:53 AM 73.9 °F - 63.0 °F 68% 29.90 in 10.0 mi South 6.9 mph - N/A   Clear
5:53 AM 73.9 °F - 63.0 °F 68% 29.91 in 10.0 mi SSE 3.5 mph - N/A   Partly Cloudy
6:53 AM 73.9 °F - 63.0 °F 68% 29.93 in 10.0 mi Calm Calm - N/A   Mostly Cloudy
7:53 AM 75.9 °F - 64.0 °F 67% 29.95 in 10.0 mi SSW 4.6 mph - 0.00 in Rain Light Rain
8:53 AM 72.0 °F - 68.0 °F 87% 29.98 in 10.0 mi SW 6.9 mph - 0.05 in Rain Light Rain
9:53 AM 73.9 °F - 66.0 °F 76% 30.00 in 10.0 mi SW 12.7 mph 18.4 mph 0.00 in   Overcast
10:09 AM 71.6 °F - 66.2 °F 83% 30.05 in 1.8 mi WSW 13.8 mph 25.3 mph 0.06 in Rain Heavy Rain
10:19 AM 69.8 °F - 68.0 °F 94% 30.04 in 3.0 mi WSW 11.5 mph - 0.08 in Rain Light Rain
10:53 AM 73.0 °F - 68.0 °F 84% 29.99 in 10.0 mi WSW 9.2 mph - 0.09 in   Overcast
11:53 AM 75.0 °F - 66.0 °F 73% 29.99 in 10.0 mi SW 18.4 mph 25.3 mph N/A   Overcast
12:53 PM 82.0 °F 82.4 °F 60.1 °F 47% 29.96 in 10.0 mi SSW 18.4 mph 25.3 mph N/A   Clear
1:53 PM 88.0 °F 88.4 °F 62.1 °F 42% 29.93 in 10.0 mi SSW 16.1 mph 19.6 mph N/A   Mostly Cloudy
2:53 PM 90.0 °F 90.6 °F 63.0 °F 40% 29.92 in 10.0 mi SSW 19.6 mph 26.5 mph N/A   Clear
3:53 PM 89.1 °F 89.0 °F 61.0 °F 39% 29.90 in 10.0 mi SSW 20.7 mph 28.8 mph N/A   Partly Cloudy
4:53 PM 91.0 °F 90.5 °F 60.1 °F 35% 29.87 in 10.0 mi SSW 19.6 mph 28.8 mph N/A   Mostly Cloudy
5:53 PM 91.0 °F 91.5 °F 62.1 °F 38% 29.85 in 10.0 mi SSW 19.6 mph 26.5 mph N/A   Scattered Clouds
6:53 PM 88.0 °F 89.6 °F 64.9 °F 46% 29.84 in 10.0 mi South 18.4 mph - N/A   Scattered Clouds
7:53 PM 84.9 °F 86.6 °F 64.9 °F 51% 29.84 in 10.0 mi South 13.8 mph 21.9 mph N/A   Clear
8:53 PM 81.0 °F 82.2 °F 63.0 °F 54% 29.86 in 10.0 mi South 8.1 mph - N/A   Clear
9:53 PM 77.0 °F - 66.0 °F 69% 29.89 in 10.0 mi SSE 8.1 mph - N/A   Clear
10:53 PM 75.0 °F - 68.0 °F 79% 29.93 in 10.0 mi SSE 9.2 mph - N/A   Clear
11:53 PM 73.0 °F - 66.0 °F 79% 29.94 in 10.0 mi SSE 8.1 mph - N/A   Clear